Track STARLINK-2185 now! 10-day predictions STARLINK-2185 is classified as:
1 47767U 21017AX 22224.52077184 .00012224 00000-0 83796-3 0 9995 2 47767 53.0546 310.7555 0001365 76.4062 283.7079 15.06406513 81064